CAPE
0 0 0 0 0 0 0 0 0 0 0 0 0 0 0 0 0 0 0 0 0 0 0 0 0 2 0 115 560 906 1040 1321 1500 1733 1877 2022 2137 2183 2182 2203 2228 2201 2192 2182
0 0 0 0 0 0 0 0 0 0 0 0 0 0 0 0 0 0 0 0 0 0 0 0 0 0 0 40 424 890 1068 1314 1458 1583 1837 2035 2140 2241 2176 2039 1972 1879 1711 1686
0 0 0 0 0 0 0 0 0 0 0 0 0 0 0 0 0 0 0 0 0 0 0 0 0 0 0 10 640 983 1186 1443 1529 1709 1854 1873 1604 569 430 392 286 306 346 453
0 0 0 0 0 0 0 0 0 0 0 0 0 0 0 0 0 0 0 0 0 0 0 0 0 0 0 290 930 1162 1411 1567 1648 1777 1697 810 6 0 40 157 31 68 576 202
0 0 0 0 0 0 0 0 0 0 0 0 0 0 0 0 0 0 0 0 0 0 0 0 0 7 185 738 1122 1293 1382 1530 1592 1551 472 137 47 22 8 0 0 0 39 2
0 0 0 0 0 0 0 0 0 0 0 0 0 0 0 0 0 0 8 17 0 0 291 132 106 436 792 1030 1193 1285 1308 1365 1570 1117 529 323 152 0 3 0 2 64 8 27
0 0 0 0 0 0 0 0 0 0 0 0 0 0 0 0 2 68 228 169 0 212 621 618 715 824 1027 1167 1287 1237 1583 1559 1272 969 833 111 0 7 2 38 62 32 112 133
0 0 0 0 0 0 0 0 0 0 0 0 0 0 0 2 161 617 998 97 355 1243 1561 1425 1177 1086 1242 1332 1657 1456 1341 801 503 15 21 65 52 55 140 197 246 260 262 176
0 0 0 0 0 0 0 0 0 0 0 0 2 23 207 271 1060 1236 794 703 1508 1790 1598 1442 1377 1495 1560 1201 857 861 714 140 152 23 71 228 192 220 280 272 371 357 333 68
0 0 0 0 0 0 0 0 0 0 0 0 0 7 555 1189 763 1237 1596 2067 1928 1826 1667 1328 1132 1056 789 613 499 311 286 123 36 93 63 1 0 63 192 247 218 30 0 0
0 0 0 0 0 0 0 0 0 0 1 0 0 81 987 722 1074 1624 1365 1690 2010 1684 982 665 462 216 225 217 158 157 160 75 38 1 0 0 0 0 0 0 0 0 0 0
0 0 0 0 0 0 0 0 0 20 1 0 0 486 782 697 326 594 710 648 533 346 47 0 0 1 0 0 2 7 58 26 0 0 0 0 0 0 0 0 0 0 0 0
0 0 0 0 0 0 0 0 23 61 0 40 149 770 577 361 34 41 177 216 165 38 0 0 0 0 0 0 0 0 0 0 0 0 0 0 0 0 0 0 0 0 0 0
0 0 0 0 0 0 0 4 0 43 18 0 63 657 381 167 31 36 16 1 0 0 0 0 0 0 0 0 0 0 0 0 0 0 0 0 0 0 0 0 0 0 0 0
0 0 0 0 0 0 0 0 0 6 1 4 17 530 487 288 155 64 22 5 13 0 0 0 0 0 0 0 0 0 0 0 0 0 0 0 0 0 0 0 0 0 0 0
0 10 4 0 0 0 0 0 125 0 0 0 0 176 113 83 24 20 71 26 0 0 0 0 0 0 0 0 0 0 0 0 0 0 0 0 0 0 0 0 0 0 1 1
3 0 0 1 45 59 0 7 131 0 0 0 0 0 0 0 0 1 0 0 0 0 0 0 0 0 0 0 0 0 0 0 0 0 0 0 0 0 0 0 0 0 0 0
1 41 45 100 307 255 308 126 120 70 19 1 0 0 5 41 8 0 0 0 0 0 0 0 0 0 0 0 0 0 0 0 0 0 0 0 0 0 0 0 0 0 0 0
5 4 58 89 61 223 254 123 118 100 283 256 264 26 3 0 0 0 0 0 0 0 0 0 0 0 0 0 0 0 0 0 0 0 0 0 0 0 0 0 0 0 0 0
142 263 321 308 208 269 197 185 149 105 146 89 0 0 0 1 0 0 0 0 0 0 0 0 0 0 0 0 0 0 0 0 0 0 0 0 0 0 0 0 0 0 0 0
232 100 148 58 14 0 109 127 122 132 68 54 13 0 0 0 0 0 0 0 0 0 0 0 0 0 0 0 0 0 0 0 0 0 0 0 0 0 0 0 0 0 0 0
96 174 53 26 13 20 22 15 24 55 69 26 3 0 0 1 0 0 0 0 0 0 0 0 0 0 0 0 0 0 0 0 0 0 0 0 0 0 0 0 0 0 0 0
1 15 50 36 15 1 0 5 16 31 21 2 0 0 0 0 0 0 0 0 0 0 0 0 0 0 0 0 0 0 0 0 0 0 0 0 0 0 0 0 0 0 0 0
0 0 0 0 0 0 0 0 0 0 0 1 1 0 0 0 0 0 0 0 0 0 0 0 0 0 0 0 0 0 0 0 0 0 0 0 0 0 0 0 0 0 0 0
0 0 0 0 6 1 0 0 0 0 0 1 1 0 0 0 0 0 0 0 0 0 0 0 0 0 0 0 0 0 0 0 0 0 0 0 0 0 0 0 0 0 0 0
0 0 0 0 0 0 0 0 0 0 0 1 0 0 0 0 0 0 0 0 0 0 0 0 0 0 0 0 0 0 0 0 0 0 0 0 0 0 0 0 0 0 0 0
0 0 0 0 0 0 0 0 0 0 0 0 0 0 0 0 0 0 0 0 0 0 0 0 0 0 0 0 0 0 0 0 0 0 0 0 0 0 0 0 0 0 0 0
CIN
0 0 0 0 0 0 0 0 0 0 0 0 0 0 0 0 0 0 0 0 0 0 0 0 0 -157 0 -822 -824 -730 -747 -641 -581 -489 -405 -342 -306 -258 -215 -185 -165 -150 -119 -123
0 0 0 0 0 0 0 0 0 0 0 0 0 0 0 0 0 0 0 0 0 0 0 0 0 0 0 -986 -955 -842 -781 -675 -609 -552 -441 -357 -299 -244 -216 -199 -176 -158 -169 -168
0 0 0 0 0 0 0 0 0 0 0 0 0 0 0 0 0 0 0 0 0 0 0 0 0 0 0 -1099 -1040 -913 -788 -679 -637 -533 -426 -378 -353 -718 -725 -675 -756 -753 -514 -318
0 0 0 0 0 0 0 0 0 0 0 0 0 0 0 0 0 0 0 0 0 0 0 0 0 0 0 -1202 -997 -898 -854 -702 -618 -526 -460 -669 -855 0 -1041 -825 -1009 -973 -494 -518
0 0 0 0 0 0 0 0 0 0 0 0 0 0 0 0 0 0 0 0 0 0 0 0 0 -859 -1238 -1097 -968 -883 -852 -780 -639 -573 -894 -1037 -1070 -1012 -939 0 0 0 -774 -390
0 0 0 0 0 0 0 0 0 0 0 0 0 0 0 0 0 0 -1107 -1069 0 0 -1262 -1279 -1443 -1262 -1152 -1054 -962 -932 -924 -837 -680 -748 -886 -823 -915 0 -687 0 -51 -732 -778 -610
0 0 0 0 0 0 0 0 0 0 0 0 0 0 0 0 -138 -1098 -988 -922 0 -978 -1057 -1079 -1148 -1119 -1086 -1052 -944 -1017 -820 -735 -706 -709 -654 -1045 0 -322 -926 -839 -728 -588 -398 -331
0 0 0 0 0 0 0 0 0 0 0 0 0 0 0 -58 -931 -878 -801 -874 -1154 -1003 -1010 -1058 -1041 -999 -1047 -975 -879 -919 -835 -929 -831 -407 -644 -827 -858 -768 -666 -602 -454 -347 -264 -216
0 0 0 0 0 0 0 0 0 0 0 0 -666 -711 -621 -642 -549 -609 -888 -1051 -846 -817 -881 -925 -929 -890 -849 -916 -1042 -979 -907 -1031 -723 -516 -678 -710 -698 -610 -457 -368 -253 -222 -193 -409
0 0 0 0 0 0 0 0 0 0 0 0 0 -391 -413 -253 -510 -552 -593 -581 -655 -680 -739 -868 -939 -948 -1094 -1116 -1132 -1224 -1086 -991 -799 -714 -567 0 0 -496 -452 -312 -254 -373 0 0
0 0 0 0 0 0 0 0 0 0 -158 0 0 -537 -182 -358 -356 -347 -531 -528 -480 -588 -816 -1024 -1253 -1400 -1325 -1312 -1319 -1224 -1113 -1076 -970 -118 0 0 0 0 0 0 0 0 0 0
0 0 0 0 0 0 0 0 0 -69 -28 0 0 -188 -195 -309 -524 -538 -590 -725 -916 -1105 -1447 0 0 -491 0 -476 -425 -369 -985 -694 0 0 0 0 0 0 0 0 0 0 0 0
0 0 0 0 0 0 0 0 -45 -87 0 -261 -237 -73 -249 -423 -693 -767 -736 -798 -950 -1229 -4 0 0 0 0 0 0 0 0 0 0 0 0 0 0 0 0 0 0 0 0 0
0 0 0 0 0 0 0 -12 0 -104 -152 0 -242 -89 -326 -485 -449 -686 -677 0 0 0 0 0 0 0 0 0 0 0 0 0 0 0 0 0 0 0 0 0 0 0 0 0
0 0 0 0 0 0 0 0 0 -3 -92 -129 -297 -130 -275 -387 -483 -622 -749 -447 -673 0 0 0 0 0 0 0 0 0 0 0 0 0 0 0 0 0 0 0 0 0 0 0
0 -32 -28 0 0 0 0 0 -23 0 0 0 0 -296 -460 -550 -604 -538 -398 -476 0 0 0 0 0 0 0 0 0 0 0 0 0 0 0 0 0 0 0 0 0 0 0 0
0 0 0 0 -21 -31 -5 -1 -35 -3 0 0 0 0 0 0 0 -4 0 0 0 0 0 0 0 0 0 0 0 0 0 0 0 0 0 0 0 0 0 0 0 0 0 0
0 -26 -19 -28 -2 -3 -3 -24 -26 -79 -21 -39 0 0 -123 -358 -329 0 0 0 0 0 0 0 0 0 0 0 0 0 0 0 0 0 0 0 0 0 0 0 0 0 0 0
0 -14 -12 -19 -11 -1 -4 -33 -66 -104 -46 -24 -38 -136 -98 0 0 0 0 0 0 0 0 0 0 0 0 0 0 0 0 0 0 0 0 0 0 0 0 0 0 0 0 0
0 -1 -1 -12 -28 -6 -22 -30 -30 -62 -56 -75 -1 0 0 0 0 0 0 0 0 0 0 0 0 0 0 0 0 0 0 0 0 0 0 0 0 0 0 0 0 0 0 0
-1 -4 -19 -58 -81 -26 -52 -55 -96 -84 -76 -162 -220 0 0 0 0 0 0 0 0 0 0 0 0 0 0 0 0 0 0 0 0 0 0 0 0 0 0 0 0 0 0 0
-49 -16 -84 -59 -102 -87 -26 -66 -120 -143 -154 -185 0 0 0 0 0 0 0 0 0 0 0 0 0 0 0 0 0 0 0 0 0 0 0 0 0 0 0 0 0 0 0 0
0 -73 -123 -124 -142 -35 0 -68 -169 -157 -192 0 0 0 0 0 0 0 0 0 0 0 0 0 0 0 0 0 0 0 0 0 0 0 0 0 0 0 0 0 0 0 0 0
0 0 0 -18 -20 0 0 0 0 0 0 0 0 0 0 0 0 0 0 0 0 0 0 0 0 0 0 0 0 0 0 0 0 0 0 0 0 0 0 0 0 0 0 0
0 0 0 0 -195 -156 -43 0 0 0 0 0 0 0 0 0 0 0 0 0 0 0 0 0 0 0 0 0 0 0 0 0 0 0 0 0 0 0 0 0 0 0 0 0
0 0 0 0 0 0 0 0 0 0 0 0 0 0 0 0 0 0 0 0 0 0 0 0 0 0 0 0 0 0 0 0 0 0 0 0 0 0 0 0 0 0 0 0
0 0 0 0 0 0 0 0 0 0 0 0 0 0 0 0 0 0 0 0 0 0 0 0 0 0 0 0 0 0 0 0 0 0 0 0 0 0 0 0 0 0 0 0
Wind_Speed
5 7 4 6 9 7 7 7 5 6 7 13 6 9 10 8 9 7 7 8 12 14 13 13 12 14 13 14 14 16 15 14 14 12 9 8 8 7 6 6 5 5 4 5
5 9 7 8 11 9 9 7 8 8 10 5 8 8 9 14 7 8 9 10 12 12 9 11 15 15 13 14 14 14 13 13 11 10 10 9 8 8 8 6 5 2 1 3
6 4 7 11 10 9 6 6 5 5 2 11 15 16 15 18 16 11 10 11 14 16 18 17 17 15 16 13 10 12 12 11 12 12 11 10 8 12 13 11 10 10 8 6
5 2 10 8 3 6 7 2 6 6 8 7 11 20 22 14 12 10 12 16 12 13 13 14 9 12 12 14 16 15 15 13 13 13 11 13 14 11 9 9 6 8 8 10
6 8 10 16 13 4 3 2 4 5 8 10 15 15 11 6 4 15 15 19 18 14 12 9 12 13 12 12 14 14 13 15 13 13 16 15 13 12 3 6 3 3 4 7
3 6 10 5 4 2 1 4 4 4 6 14 15 11 12 20 29 29 21 15 18 11 7 11 11 15 16 14 15 15 14 13 14 17 17 15 12 9 5 3 3 3 3 3
5 6 8 5 9 7 5 4 7 6 6 7 8 8 23 27 29 24 23 22 17 12 14 13 13 16 16 16 16 13 13 13 12 12 13 11 9 4 3 4 5 5 4 2
3 4 10 4 4 3 2 2 5 10 8 12 15 20 18 21 23 24 27 22 7 8 8 11 13 14 14 14 13 14 13 13 10 10 12 5 11 7 7 7 6 4 3 4
8 6 4 2 3 6 3 3 2 9 12 11 15 19 22 20 22 23 20 9 5 7 9 7 8 11 16 12 13 15 14 14 16 10 5 6 9 7 5 5 3 3 2 2
5 1 5 6 6 4 1 2 7 10 14 14 16 18 25 14 15 12 7 1 4 10 12 12 12 13 17 16 14 16 16 17 11 13 8 9 9 6 5 4 3 4 4 4
9 7 9 10 4 7 10 8 10 13 11 14 17 18 14 10 9 8 5 5 6 9 10 12 16 12 10 12 14 15 14 12 12 11 12 12 11 6 7 6 4 6 5 5
14 9 9 8 9 10 11 13 13 10 15 17 15 15 6 3 3 4 4 6 9 12 13 12 12 15 12 12 14 14 12 8 7 9 9 9 11 12 18 16 19 17 13 7
15 18 16 12 13 15 12 12 10 8 12 15 17 8 3 2 3 7 8 11 10 12 12 14 11 16 9 13 14 12 12 9 6 9 8 9 8 9 10 7 10 11 11 9
18 16 13 14 12 8 10 9 8 6 9 4 10 5 7 5 3 5 8 10 11 9 12 14 15 16 6 15 15 13 13 15 9 6 7 7 8 8 6 5 4 3 7 8
18 16 17 14 11 13 13 9 13 6 6 5 5 8 13 13 12 10 7 6 12 12 12 13 16 13 9 13 14 13 11 9 9 8 8 9 8 7 6 6 6 5 4 4
9 7 7 11 14 10 10 11 10 4 5 2 4 12 15 21 20 15 9 4 10 15 9 12 14 10 11 13 14 13 13 19 12 7 7 7 6 7 7 6 5 5 4 4
16 15 13 12 10 10 12 12 13 8 6 4 11 15 13 21 21 16 13 10 13 10 13 12 12 12 11 15 14 9 9 8 12 8 7 7 6 6 5 5 5 5 4 4
14 9 6 6 4 6 10 8 10 8 6 4 10 21 20 13 17 8 2 9 12 16 12 11 12 13 13 12 11 8 8 7 7 8 7 6 6 5 6 5 5 4 4 5
12 11 10 12 9 6 9 9 8 8 11 10 5 6 24 15 10 6 9 5 14 14 8 11 20 15 12 13 11 8 8 9 8 6 6 8 6 5 5 4 4 4 4 4
9 10 12 8 8 6 9 5 12 13 7 11 11 16 19 14 7 6 11 11 5 7 5 10 12 11 11 12 13 7 8 8 8 7 5 5 6 6 5 5 4 4 3 3
11 7 10 12 13 10 9 6 9 11 9 12 13 13 19 10 6 10 12 9 3 6 10 13 9 6 6 8 8 7 8 7 6 5 5 4 4 3 2 4 3 3 2 2
12 11 7 8 11 10 5 10 11 10 13 14 13 12 14 10 12 12 8 7 4 9 6 6 5 10 8 12 7 7 6 6 5 5 4 3 3 4 3 2 1 2 0 1
13 10 9 10 10 10 11 11 11 10 12 13 11 11 10 6 4 9 8 2 4 7 5 5 10 14 12 6 4 5 6 4 4 3 2 3 3 2 2 1 1 2 2 2
10 13 10 8 9 12 14 8 10 10 11 11 11 8 9 7 6 4 8 8 10 8 6 7 8 12 9 5 4 5 4 3 3 2 2 2 2 2 2 1 2 3 4 4
8 9 10 10 11 7 8 7 10 10 12 11 9 7 7 4 5 4 6 6 9 7 5 8 11 10 4 3 4 4 4 4 4 4 4 4 4 3 3 4 5 5 5 5
9 6 6 8 5 4 4 5 6 5 7 8 7 6 7 7 7 7 5 5 5 6 4 4 3 3 2 3 4 5 5 5 5 5 5 5 5 5 6 6 7 7 6 6
6 7 5 6 7 5 4 4 6 6 6 8 9 5 8 7 7 6 6 4 4 5 4 1 3 5 5 5 5 6 4 4 5 4 5 6 6 7 7 8 7 7 6 6
Wind_Direction
252 265 225 239 252 240 228 215 194 259 209 273 337 305 290 290 297 269 221 203 201 201 206 198 191 194 189 192 186 182 183 184 192 194 188 171 159 158 165 171 181 190 210 240
284 294 284 263 257 236 228 258 245 235 274 240 301 305 319 321 309 266 254 218 238 215 204 206 193 192 185 185 185 177 177 182 181 167 163 165 153 162 165 167 171 159 345 269
248 245 303 300 255 206 205 212 209 216 283 354 341 334 320 308 302 297 283 244 221 219 203 204 200 180 188 179 152 166 169 173 170 166 161 164 128 96 95 98 104 93 36 341
220 33 247 245 232 209 211 7 31 31 5 341 322 304 287 282 262 297 317 308 257 236 230 210 172 184 158 161 170 174 165 169 168 164 145 121 129 134 160 177 147 148 138 201
195 200 274 286 287 185 175 181 356 350 345 335 328 309 299 117 26 323 313 303 291 249 241 162 164 157 156 158 162 158 176 167 164 146 134 148 148 166 51 106 191 45 82 159
139 182 218 231 257 312 271 212 2 37 345 340 346 349 285 332 322 318 312 289 284 264 165 156 165 154 146 157 166 171 168 161 150 153 150 159 153 111 138 164 147 136 87 129
187 225 279 274 294 278 210 270 321 5 346 323 306 259 287 303 303 301 290 302 274 202 187 176 161 152 153 158 175 153 144 141 139 139 144 128 114 67 97 125 109 98 156 176
152 202 259 249 28 62 278 152 309 331 316 302 297 294 288 293 294 298 302 309 225 175 154 144 153 149 151 156 141 131 133 129 123 109 115 109 106 117 108 104 121 146 90 79
188 215 198 131 143 250 263 181 227 288 295 298 299 302 302 304 304 307 302 277 163 157 126 126 131 145 129 122 123 119 113 105 107 57 85 108 107 101 89 98 107 109 103 86
326 202 181 265 295 219 46 271 293 300 298 306 302 305 303 298 289 298 296 270 117 128 117 104 106 116 127 136 133 120 112 106 109 112 96 64 58 56 76 69 72 68 88 93
264 299 309 292 268 313 315 294 298 303 295 288 295 300 298 293 300 320 25 80 117 107 103 103 108 101 105 112 110 103 104 110 108 111 104 87 68 57 76 30 66 100 73 75
254 237 231 263 287 288 292 296 302 302 311 294 293 291 280 315 351 13 41 73 93 104 105 93 90 85 76 73 86 92 86 77 80 94 96 95 100 90 55 77 80 75 67 71
245 250 254 262 271 270 274 277 275 292 300 299 291 266 308 95 51 104 120 123 120 117 106 91 85 83 85 94 92 93 101 98 93 94 111 120 111 108 114 72 80 90 82 68
235 245 260 247 249 247 238 240 276 292 283 314 349 14 77 66 60 97 107 104 101 98 89 103 91 80 70 92 97 97 86 76 83 85 97 98 99 111 114 121 111 73 56 49
230 214 233 248 265 262 254 259 272 240 261 289 16 71 77 65 55 39 56 98 107 86 89 89 85 78 74 84 90 93 101 89 87 83 78 85 93 102 102 90 82 79 65 59
216 199 229 246 247 249 242 233 212 176 138 214 70 61 81 68 52 35 16 52 113 102 101 89 90 83 89 98 96 83 81 87 85 82 85 94 96 92 86 84 88 94 69 19
236 238 230 230 234 238 214 208 183 177 152 135 92 93 72 90 57 30 0 326 76 83 88 96 88 78 75 75 85 84 86 92 101 86 85 82 85 92 108 116 119 101 92 64
224 239 173 208 208 230 197 157 142 147 133 165 104 107 90 63 95 64 240 254 89 76 64 72 86 84 79 85 92 94 93 93 94 96 98 100 110 118 113 115 110 104 88 57
209 241 218 208 202 195 140 155 172 168 164 171 147 133 106 89 84 181 214 87 71 76 46 78 87 84 86 92 90 89 94 93 89 96 107 115 109 106 109 107 104 93 82 74
99 105 90 121 171 144 157 185 159 152 157 125 126 105 92 98 120 177 77 63 53 90 107 94 85 79 79 83 89 90 99 109 116 112 115 115 124 130 128 118 119 97 63 51
49 91 75 83 90 79 61 39 97 101 105 99 102 112 110 110 162 111 105 100 29 85 79 80 82 86 84 102 103 99 101 102 107 112 117 128 127 131 136 125 117 78 41 14
55 98 88 69 80 81 55 79 78 89 91 93 98 113 106 111 85 70 50 114 137 102 92 83 84 96 101 92 85 102 114 119 122 134 138 161 161 154 157 163 101 85 350 318
48 53 58 60 68 74 62 67 83 101 105 110 117 105 94 89 92 116 114 67 102 105 108 98 99 93 92 85 113 108 100 112 132 126 152 175 166 161 194 255 34 306 295 297
41 45 47 50 69 70 68 54 74 75 81 79 74 80 108 107 66 59 96 108 107 95 94 111 122 134 136 127 106 113 129 130 133 188 216 218 191 222 254 302 296 278 279 289
30 49 47 50 58 58 71 78 83 85 90 85 79 74 70 45 108 131 95 86 106 111 117 144 142 130 106 118 133 152 174 189 181 197 214 236 240 252 264 264 265 268 272 270
40 44 48 46 46 35 43 67 80 66 90 85 73 77 83 83 91 91 92 96 95 105 117 121 133 125 163 188 187 205 201 194 193 212 220 236 244 252 254 254 255 255 255 257
36 31 40 47 30 31 45 52 90 73 75 102 98 98 101 98 102 107 117 121 99 89 80 94 193 199 209 209 210 220 222 229 225 237 243 250 249 251 252 250 250 252 252 251